Regional Weather Roundup
Issued by NWS

Home | Current Version | Previous Version | Graphics & Text | Print | Product List | Glossary On
Versions: 1 2 3 4 5 6 7 8 9 10 11 12 13 14 15 16 17 18 19 20 21 22 23 24 25 26 27 28 29 30 31 32 33 34 35 36 37 38 39 40 41 42 43 44 45 46 47 48 49 50
032
ASUS43 KDTX 201210
RWRMI
MICHIGAN HOURLY REGIONAL WEATHER ROUNDUP
NATIONAL WEATHER SERVICE DETROIT/PONTIAC MI
800 AM EDT SUN AUG 20 2017

NOTE: "FAIR" INDICATES FEW OR NO CLOUDS BELOW 12,000 FEET WITH NO
SIGNIFICANT WEATHER AND/OR OBSTRUCTION TO VISIBILITY.

MIZ047>049-052>055-059>063-066>070-074>076-081>083-201300-
SOUTHEAST LOWER MICHIGAN

CITY           SKY/WX    TMP DP  RH WIND       PRES   REMARKS
ADRIAN         SUNNY     58  58 100 CALM      30.09R
6HR MIN TEMP:  55; 6HR MAX TEMP:  60;

ALMA           SUNNY     58  57  97 CALM      30.07R FOG
ANN ARBOR      SUNNY     56  56 100 CALM      30.08R
BAD AXE        SUNNY     60  59  96 CALM      30.06R
6HR MIN TEMP:  57; 6HR MAX TEMP:  60;

CARO           SUNNY     58  56  94 CALM      30.05S FOG
DETROIT CITY   SUNNY     64  60  87 CALM      30.08R
6HR MIN TEMP:  61; 6HR MAX TEMP:  67;

DETROIT        SUNNY     63  61  93 CALM      30.09R
6HR MIN TEMP:  61; 6HR MAX TEMP:  66;

FLINT          SUNNY     60  58  92 SW5       30.08R
6HR MIN TEMP:  53; 6HR MAX TEMP:  60;

GROSSE ILE     SUNNY     64  61  90 CALM      30.07R
6HR MIN TEMP:  60; 6HR MAX TEMP:  65;

HILLSDALE      SUNNY     59  57  94 CALM      30.09R
HOWELL         MOSUNNY   59  57  96 CALM      30.08R
6HR MIN TEMP:  55; 6HR MAX TEMP:  61;


CITY           SKY/WX    TMP DP  RH WIND       PRES   REMARKS
JACKSON        SUNNY     57  54  89 CALM      30.09R
6HR MIN TEMP:  54; 6HR MAX TEMP:  61; 6HR PCP: TRACE;

LAMBERTVILLE   SUNNY     60  59  98 CALM      30.08R
6HR MIN TEMP:  56; 6HR MAX TEMP:  60;

LANSING        SUNNY     60  57  89 CALM      30.08R
6HR MIN TEMP:  56; 6HR MAX TEMP:  62;

LAPEER         FAIR      56  56  97 CALM      30.07S FOG
6HR MIN TEMP:  54; 6HR MAX TEMP:  59;

MASON          SUNNY     57  55  94 CALM      30.09R FOG
MONROE         SUNNY     60  59  99 CALM      30.07R FOG
6HR MIN TEMP:  55; 6HR MAX TEMP:  60;

MT. CLEMENS    SUNNY     62  62 100 CALM      30.06R
6HR MIN TEMP:  57; 6HR MAX TEMP:  67;

PONTIAC        MOSUNNY   60  59  96 CALM      30.07R
6HR MIN TEMP:  56; 6HR MAX TEMP:  64;

PORT HOPE        N/A     65  60  84 SW9       30.02R
6HR MIN TEMP:  64; 6HR MAX TEMP:  67;

PORT HURON     SUNNY     59  57  94 CALM      30.08R
TRI CITIES     SUNNY     61  61 100 SW7       30.07R FOG
6HR MIN TEMP:  60; 6HR MAX TEMP:  64;

MIDLAND        FAIR      58  58 100 CALM      30.06R FOG
6HR MIN TEMP:  54; 6HR MAX TEMP:  59;

TROY           SUNNY     63  59  86 CALM      30.10R
SAGINAW HB     SUNNY     61  59  94 SW6       30.06R
$$
MIZ043>046-050>051-056>058-064>065-071>073-077>080-201300-
SOUTHWEST LOWER MICHIGAN

CITY           SKY/WX    TMP DP  RH WIND       PRES   REMARKS
BATTLE CREEK   SUNNY     59  57  93 CALM      30.09R
6HR MIN TEMP:  55; 6HR MAX TEMP:  60;

BENTON HARBOR  SUNNY     59  56  89 SE3       30.06S
6HR MIN TEMP:  55; 6HR MAX TEMP:  59;

BIG RAPIDS     MOSUNNY   57  56  95 CALM      30.06R FOG
6HR MIN TEMP:  55; 6HR MAX TEMP:  59;

COLDWATER      SUNNY     60  60 100 CALM      30.09R
6HR MIN TEMP:  54; 6HR MAX TEMP:  60;

FREMONT        FAIR      58  58 100 CALM      30.05R FOG
HOLLAND        SUNNY     61  57  87 CALM      30.07R
6HR MIN TEMP:  58; 6HR MAX TEMP:  63;

GRAND RAPIDS   MOSUNNY   59  58  96 CALM      30.08R
6HR MIN TEMP:  57; 6HR MAX TEMP:  61;

IONIA          FAIR      57  56  97 SW3       30.08R
6HR MIN TEMP:  54; 6HR MAX TEMP:  60;

KALAMAZOO      SUNNY     58  55  90 CALM      30.09R
6HR MIN TEMP:  55; 6HR MAX TEMP:  60;

LUDINGTON      SUNNY     68  63  86 CALM      30.03R
6HR MIN TEMP:  64; 6HR MAX TEMP:  68;

MARSHALL       MOSUNNY   55  55  97 CALM      30.09R
6HR MIN TEMP:  51; 6HR MAX TEMP:  57;

MOUNT PLEASANT SUNNY     64  60  87 CALM      30.05R
6HR MIN TEMP:  58; 6HR MAX TEMP:  64;

MUSKEGON       SUNNY     61  59  93 SE5       30.05R
6HR MIN TEMP:  59; 6HR MAX TEMP:  65;

SOUTH HAVEN    SUNNY     61  59  93 S3        30.06R
$$
MIZ016>042-201300-
NORTHERN LOWER MICHIGAN

CITY           SKY/WX    TMP DP  RH WIND       PRES   REMARKS
ALPENA         SUNNY     61  60  97 CALM      30.00R
6HR MIN TEMP:  56; 6HR MAX TEMP:  61;

BEAVER ISLAND  SUNNY     66  65  97 SW8       29.98R
6HR MIN TEMP:  61; 6HR MAX TEMP:  66;

BELLAIRE       SUNNY     60  59  96 CALM      30.02R FOG
6HR MIN TEMP:  57; 6HR MAX TEMP:  64;

CADILLAC       SUNNY     61  58  90 CALM      30.06R FOG
CHARLEVOIX     SUNNY     65  65 100 CALM      30.02R
FRANKFORT      MOSUNNY   69  68  97 CALM      30.02R
GAYLORD        SUNNY     62  59  90 W7        30.03R
6HR MIN TEMP:  59; 6HR MAX TEMP:  62;

GRAYLING       SUNNY     63  59  87 SW6       30.04R
6HR MIN TEMP:  60; 6HR MAX TEMP:  63;

HARBOR SPRINGS SUNNY     64  63  95 SW3       30.00R
HOUGHTON LAKE  SUNNY     64  60  87 SW5       30.06R
6HR MIN TEMP:  61; 6HR MAX TEMP:  65;

MANISTEE       SUNNY     58  58 100 E5        30.03R
OSCODA         SUNNY     64  61  88 SW6       30.01R
6HR MIN TEMP:  62; 6HR MAX TEMP:  66;

PELLSTON       MOSUNNY   67  63  87 SW6       30.00R
6HR MIN TEMP:  57; 6HR MAX TEMP:  67;

ROGERS CITY    SUNNY     64  61  90 SW5       30.00R
TRAVERSE CITY  MOSUNNY   65  62  90 SW3       30.01R
6HR MIN TEMP:  64; 6HR MAX TEMP:  67;

$$
MIZ007>008-015-201300-
EASTERN UPPER MICHIGAN

CITY           SKY/WX    TMP DP  RH WIND       PRES   REMARKS
KINROSS        FOG       62  62 100 SW5       29.98R VSB<1/4
6HR MIN TEMP:  57; 6HR MAX TEMP:  62;

MACKINAC ISLAN SUNNY     64  64 100 SW6       29.98R
6HR MIN TEMP:  62; 6HR MAX TEMP:  65;

NEWBERRY       MOSUNNY   59  58  97 S3        29.97R FOG
6HR MIN TEMP:  56; 6HR MAX TEMP:  60;

S. S. MARIE    FOG       59  58  96 CALM      29.97R VSB<1/4
6HR MIN TEMP:  55; 6HR MAX TEMP:  60;

MUNISING         N/A     62  61  96 S6        29.94R
6HR MIN TEMP:  60; 6HR MAX TEMP:  65;

$$
MIZ004>006-011>014-085-201300-
CENTRAL UPPER MICHIGAN

CITY           SKY/WX    TMP DP  RH WIND       PRES   REMARKS
MANISTIQUE     SUNNY     56  51  81 CALM      29.96S
6HR MIN TEMP:  51; 6HR MAX TEMP:  56;

ESCANABA       SUNNY     58  58 100 CALM      29.98R
6HR MIN TEMP:  54; 6HR MAX TEMP:  60;

MENOMINEE      CLEAR     63  60  90 SW8       30.00R
6HR MIN TEMP:  59; 6HR MAX TEMP:  64;

SAWYER-GWINN   SUNNY     55  54  94 S3        29.98R
$$
MIZ001>003-009>011-084-201300-
WESTERN UPPER MICHIGAN

CITY           SKY/WX    TMP DP  RH WIND       PRES   REMARKS
IRON MOUNTAIN  CLEAR     56  53  90 CALM      29.98R
6HR MIN TEMP:  54; 6HR MAX TEMP:  61;

HOUGHTON       CLEAR     61  57  88 VRB3      29.91R
COPPER HARBOR    N/A     65  58  78 SW8       29.88R
6HR MIN TEMP:  63; 6HR MAX TEMP:  69;

IRONWOOD       PTCLDY    64  60  87 S7        29.93R
6HR MIN TEMP:  61; 6HR MAX TEMP:  66;

$$

ABBREVIATIONS USED IN REMARKS
   TC - TEMPERATURE IN CELSIUS
  WCI - WIND CHILL INDEX
   HX - HEAT INDEX
  VSB - VISIBILITY





USA.gov is the U.S. government's official web portal to all federal, state and local government web resources and services.